Location: *
(51.2167°N, 10.0667°E)
Time: 17:19:18
(UTC+00:00)

Cosmos 1908 Rocket - Pass Details

Date: 12 December 2019
Orbit: 605 x 633 km, 82.5° (Epoch: 19 January)

Event Time Altitude Azimuth Distance (km) Brightness Sun altitude
Rises 16:17:08 0° 353° (N) 2,913 6.8 -9.5°
Reaches altitude 10° 16:19:27 10° 359° (N) 1,997 5.9 -9.9°
Maximum altitude 16:23:44 49° 74° (ENE) 803 3.7 -10.5°
Drops below altitude 10° 16:27:58 10° 150° (SSE) 1,965 6.1 -11.1°
Sets 16:30:13 0° 156° (SSE) 2,861 7.0 -11.4°
